Hourly Weather Roundup
Issued by NWS Central Illinois

Current Version | Previous Version | Text Only | Print | Product List | Glossary On
Versions: 1 2 3 4 5 6 7 8 9 10 11 12 13 14 15 16 17 18 19 20 21 22 23 24 25 26 27 28 29 30 31 32 33 34 35 36 37 38 39 40 41 42 43 44 45 46 47 48 49 50
000
NZUS43 KILX 232010
HWRILX

AREA WEATHER ROUNDUP
NATIONAL WEATHER SERVICE, LINCOLN IL
300 PM CDT SAT AUG 23 2014


CITY           SKY/WX    TMP DP  RH WIND       PRES   REMARKS
BLOOMINGTON    CLOUDY    71  69  93 E6        29.99F
CHAMPAIGN      TSTM      73  72  96 VRB7G25   30.00R FOG
DECATUR        PTSUNNY   89  79  72 E6        29.95F HX 104
FLORA          MOSUNNY   92  76  60 SE3       29.93F HX 104
GALESBURG      CLOUDY    78  73  84 E8        29.94F HX  80
JACKSONVILLE   MOSUNNY   92  77  62 E3        29.94F HX 106
LACON          CLOUDY    73  69  88 SE7       29.94F
LAWRENCEVILLE  CLOUDY    90  81  74 E7        29.93F HX 109
LITCHFIELD     MOSUNNY   92  78  63 CALM      29.93F HX 106
$$


CITY           SKY/WX    TMP DP  RH WIND       PRES   REMARKS
LINCOLN        PTSUNNY   88  76  67 NE8       29.91F HX  99
MACOMB         PTSUNNY   82  73  74 E8        29.95F HX  86
MATTOON        MOSUNNY   89  79  72 SE7       29.94F HX 104
MT CARMEL AP   MOSUNNY   95  79  59 CALM      29.93F HX 112
OLNEY-NOBLE AP MOSUNNY   91  81  70 CALM      29.93F HX 110
PARIS          TSTM      85  80  84 CALM      29.95F HX 100
PEORIA         CLOUDY    79  70  74 E12       29.95F HX  82
PONTIAC        CLOUDY    72  72 100 SE3       29.98S
RANTOUL        TSTM      73  70  91 NE12      30.01F
ROBINSON       MOSUNNY   91  81  72 S3        29.94F HX 109
SPRINGFIELD    MOSUNNY   92  79  65 E7        29.93F HX 108
TAYLORVILLE    PTSUNNY   90  79  70 NE5       29.93F HX 105
$$

...REGIONAL REPORTS...


CITY           SKY/WX    TMP DP  RH WIND       PRES   REMARKS
CHICAGO O`HARE CLOUDY    71  65  81 NE10      29.98F THUNDER
KANKAKEE       CLOUDY    71  70  96 S3        30.00F
MOLINE         CLOUDY    76  71  85 SE9       29.93F
MOUNT VERNON   MOSUNNY   93  79  62 CALM      29.94F HX 110
PITTSFIELD     SUNNY     92  74  54 E5        29.94F HX 101
QUINCY         MOSUNNY   90  73  57 SE8       29.92F HX  98
ROCKFORD       CLOUDY    73  71  93 SE8       29.95S
$$


CITY           SKY/WX    TMP DP  RH WIND       PRES   REMARKS
BURLINGTON     CLOUDY    82  74  76 E9        29.93F HX  88
CEDAR RAPIDS   CLOUDY    80  72  76 SE7       29.92F HX  84
DES MOINES     CLOUDY    86  74  67 SE10      29.87F HX  94
KIRKSVILLE     SUNNY     90  78  68 S12       29.92F HX 104
OTTUMWA        CLOUDY    83  73  72 SE10      29.91F HX  89
ST LOUIS       PTSUNNY   98  73  44 N3        29.93F HX 108
$$


CITY           SKY/WX    TMP DP  RH WIND       PRES   REMARKS
TERRE HAUTE    MOSUNNY   89  77  67 S6        29.94F THUNDER HX 101
EVANSVILLE     MOSUNNY   91  78  65 CALM      29.93F HX 106
INDIANAPOLIS   CLOUDY    86  73  65 SW6       29.96F HX  93
LAFAYETTE      CLOUDY    85  74  69 NE10      29.96F HX  92
MADISON        LGT RAIN  77  74  90 E7        29.93S FOG
MILWAUKEE      FOG       72  70  93 E8        30.01F VSB 1/2
$$




USA.gov is the U.S. government's official web portal to all federal, state and local government web resources and services.